User: anonymous   Login
Location: Unspecified
(0.0000°N, 0.0000°E)
Time: 19:58:42
(UTC+00:00)
Language:

COSMOS-2409 - Orbit

View from above orbital plane
View from above orbital plane
View from above satellite
View from above satellite

Ground track
Ground track

The orbit data is extracted from the following two-line orbital elements,

1 28420U 04037B   21026.24738588  .00000026  00000-0  11515-3 0  9990
2 28420  82.4872 120.9988 0012691 272.6116  87.3518 12.45278672742885
Epoch (UTC): 26 January 2021 05:56:14
Eccentricity: 0.0012691
inclination: 82.4872°
perigee height: 1474 km
apogee height: 1494 km
right ascension of ascending node: 120.9988°
argument of perigee: 272.6116°
revolutions per day: 12.45278672
mean anomaly at epoch: 87.3518°
orbit number at epoch: 74288

The dashed part of the orbit path shows where the satellite is in the earth's shadow,  

DLR